• In India
  • List of Countries
  • For 7 days
  • Water Temperature
  • Satellite Maps
  • Weather Map
  • Weather Widgets
  • user-avatar
    Login

    Hourly Weather Bregenz

    Today, 21 October, Saturday

    Time Temperature Precipitation Wind Pressure Humidity
    00:00 +6°C° 0 mm 2 mps 647 mmHg 71%
    01:00 +6°C° 0 mm 2 mps 647 mmHg 69%
    02:00 +6°C° 0 mm 2 mps 647 mmHg 68%
    03:00 +6°C° 0 mm 2 mps 647 mmHg 67%
    04:00 +6°C° 0 mm 2 mps 647 mmHg 67%
    05:00 +5°C° 0 mm 2 mps 647 mmHg 66%
    06:00 +5°C° 0 mm 2 mps 647 mmHg 66%
    07:00 +5°C° 0 mm 2 mps 647 mmHg 66%
    08:00 +9°C° 0 mm 1 mps 648 mmHg 61%
    09:00 +11°C° 0 mm 1 mps 648 mmHg 57%
    10:00 +13°C° 0 mm 1 mps 649 mmHg 52%
    11:00 +14°C° 0 mm 1 mps 649 mmHg 51%
    12:00 +15°C° 0 mm 1 mps 649 mmHg 49%
    13:00 +16°C° 0 mm 2 mps 649 mmHg 48%
    14:00 +15°C° 0 mm 1 mps 648 mmHg 53%
    15:00 +14°C° 0 mm 1 mps 648 mmHg 59%
    16:00 +14°C° 0 mm 1 mps 647 mmHg 64%
    17:00 +12°C° 0 mm 1 mps 647 mmHg 71%
    18:00 +10°C° 0 mm 1 mps 647 mmHg 77%
    19:00 +8°C° 0 mm 1 mps 647 mmHg 83%
    20:00 +7°C° 0.4 mm 2 mps 647 mmHg 86%
    21:00 +5°C° 0.4 mm 3 mps 647 mmHg 89%
    22:00 +5°C° 0.4 mm 3 mps 647 mmHg 91%
    23:00 +4°C° 1.1 mm 3 mps 647 mmHg 93%

    Tomorrow, 22 October, Sunday

    Time Temperature Precipitation Wind Pressure Humidity
    00:00 +4°C° 1.1 mm 3 mps 647 mmHg 94%
    01:00 +4°C° 1.1 mm 2 mps 647 mmHg 95%
    02:00 +4°C° 0.7 mm 2 mps 647 mmHg 95%
    03:00 +4°C° 0.7 mm 2 mps 647 mmHg 95%
    04:00 +3°C° 0.7 mm 2 mps 646 mmHg 95%
    05:00 +3°C° 0.8 mm 2 mps 646 mmHg 95%
    06:00 +3°C° 0.8 mm 2 mps 646 mmHg 95%
    07:00 +3°C° 0.8 mm 2 mps 646 mmHg 95%
    08:00 +2°C° 0.6 mm 3 mps 646 mmHg 93%
    09:00 +2°C° 0.6 mm 3 mps 646 mmHg 92%
    10:00 +2°C° 0.6 mm 3 mps 646 mmHg 90%
    11:00 +2°C° 0.4 mm 3 mps 646 mmHg 88%
    12:00 +3°C° 0.4 mm 3 mps 646 mmHg 86%
    13:00 +3°C° 0.4 mm 3 mps 646 mmHg 83%
    14:00 +3°C° 0.3 mm 3 mps 646 mmHg 84%
    15:00 +3°C° 0.3 mm 3 mps 645 mmHg 85%
    16:00 +2°C° 0.3 mm 3 mps 645 mmHg 85%
    17:00 +2°C° 0.3 mm 3 mps 646 mmHg 88%
    18:00 +1°C° 0.3 mm 3 mps 646 mmHg 91%
    19:00 0°C° 0.3 mm 3 mps 646 mmHg 93%
    20:00 0°C° 0.6 mm 3 mps 646 mmHg 94%
    21:00 0°C° 0.6 mm 3 mps 646 mmHg 94%
    22:00 0°C° 0.6 mm 3 mps 647 mmHg 94%
    23:00 0°C° 0.4 mm 3 mps 647 mmHg 94%

    Day after tomorrow, 23 October, Monday

    Time Temperature Precipitation Wind Pressure Humidity
    00:00 -1°C° 0.4 mm 3 mps 647 mmHg 94%
    01:00 -1°C° 0.4 mm 3 mps 647 mmHg 95%
    02:00 -1°C° 0.4 mm 3 mps 647 mmHg 94%
    03:00 -1°C° 0.4 mm 3 mps 647 mmHg 94%
    04:00 -1°C° 0.4 mm 3 mps 647 mmHg 94%
    05:00 -1°C° 0.6 mm 3 mps 647 mmHg 94%
    06:00 -1°C° 0.6 mm 3 mps 647 mmHg 94%
    07:00 -1°C° 0.6 mm 3 mps 647 mmHg 95%
    08:00 -1°C° 0.7 mm 3 mps 647 mmHg 94%
    09:00 0°C° 0.7 mm 3 mps 647 mmHg 93%
    10:00 0°C° 0.7 mm 3 mps 648 mmHg 92%
    11:00 +1°C° 0.8 mm 3 mps 648 mmHg 93%
    12:00 +1°C° 0.8 mm 3 mps 648 mmHg 93%
    13:00 +1°C° 0.8 mm 3 mps 648 mmHg 94%
    14:00 +1°C° 1 mm 3 mps 648 mmHg 94%
    15:00 +1°C° 1 mm 3 mps 648 mmHg 95%
    16:00 0°C° 1 mm 3 mps 648 mmHg 96%
    17:00 0°C° 0.9 mm 3 mps 648 mmHg 96%
    18:00 +1°C° 0.9 mm 2 mps 648 mmHg 97%
    19:00 +1°C° 0.9 mm 2 mps 649 mmHg 97%
    20:00 +1°C° 0.7 mm 2 mps 649 mmHg 97%
    21:00 +1°C° 0.7 mm 2 mps 649 mmHg 97%
    22:00 +1°C° 0.7 mm 2 mps 649 mmHg 97%
    23:00 +1°C° 0.6 mm 2 mps 649 mmHg 97%

    24 October, Tuesday

    Time Temperature Precipitation Wind Pressure Humidity
    00:00 +1°C° 0.6 mm 2 mps 649 mmHg 97%
    01:00 +1°C° 0.6 mm 2 mps 649 mmHg 96%
    02:00 +1°C° 0.6 mm 2 mps 649 mmHg 96%
    03:00 +1°C° 0.6 mm 2 mps 649 mmHg 96%
    04:00 +2°C° 0.6 mm 1 mps 649 mmHg 96%
    05:00 +1°C° 0.6 mm 2 mps 649 mmHg 96%
    06:00 +2°C° 0.6 mm 2 mps 649 mmHg 95%
    07:00 +2°C° 0.6 mm 2 mps 650 mmHg 95%
    08:00 +2°C° 0.3 mm 2 mps 650 mmHg 95%
    09:00 +3°C° 0.3 mm 2 mps 650 mmHg 94%
    10:00 +4°C° 0.3 mm 2 mps 650 mmHg 94%
    11:00 +6°C° 0 mm 1 mps 650 mmHg 93%
    12:00 +6°C° 0 mm 1 mps 650 mmHg 93%
    13:00 +7°C° 0 mm 1 mps 650 mmHg 92%
    14:00 +7°C° 0 mm 1 mps 651 mmHg 92%
    15:00 +7°C° 0 mm 1 mps 651 mmHg 92%
    16:00 +7°C° 0 mm 1 mps 651 mmHg 92%
    17:00 +6°C° 0 mm 1 mps 651 mmHg 94%
    18:00 +6°C° 0 mm 1 mps 651 mmHg 95%
    19:00 +5°C° 0 mm 1 mps 651 mmHg 96%
    20:00 +4°C° 0 mm 1 mps 651 mmHg 96%
    21:00 +3°C° 0 mm 2 mps 651 mmHg 96%
    22:00 +2°C° 0 mm 2 mps 651 mmHg 96%
    23:00 +2°C° 0 mm 2 mps 651 mmHg 94%

    25 October, Wednesday

    Time Temperature Precipitation Wind Pressure Humidity
    00:00 +2°C° 0 mm 2 mps 651 mmHg 93%
    01:00 +2°C° 0 mm 2 mps 651 mmHg 91%
    02:00 +2°C° 0 mm 2 mps 651 mmHg 90%
    03:00 +3°C° 0 mm 1 mps 650 mmHg 88%
    04:00 +3°C° 0 mm 1 mps 650 mmHg 86%
    05:00 +3°C° 0 mm 1 mps 650 mmHg 86%
    06:00 +3°C° 0 mm 1 mps 650 mmHg 85%
    07:00 +3°C° 0 mm 1 mps 650 mmHg 85%
    08:00 +5°C° 0 mm 1 mps 651 mmHg 85%
    09:00 +6°C° 0 mm 1 mps 651 mmHg 84%
    10:00 +8°C° 0 mm 1 mps 652 mmHg 84%
    11:00 +9°C° 0 mm 1 mps 652 mmHg 82%
    12:00 +11°C° 0 mm 1 mps 652 mmHg 79%
    13:00 +12°C° 0 mm 1 mps 652 mmHg 77%
    14:00 +11°C° 0 mm 1 mps 652 mmHg 80%
    15:00 +11°C° 0 mm 1 mps 652 mmHg 82%
    16:00 +10°C° 0 mm 1 mps 652 mmHg 85%
    17:00 +9°C° 0 mm 1 mps 651 mmHg 85%
    18:00 +7°C° 0 mm 1 mps 651 mmHg 86%
    19:00 +6°C° 0 mm 1 mps 651 mmHg 86%
    20:00 +5°C° 0 mm 2 mps 651 mmHg 84%
    21:00 +4°C° 0 mm 2 mps 651 mmHg 82%
    22:00 +4°C° 0 mm 2 mps 651 mmHg 80%
    23:00 +4°C° 0 mm 2 mps 651 mmHg 79%

    26 October, Thursday

    Time Temperature Precipitation Wind Pressure Humidity
    00:00 +4°C° 0 mm 2 mps 651 mmHg 77%
    01:00 +4°C° 0 mm 2 mps 651 mmHg 76%
    02:00 +5°C° 0 mm 1 mps 651 mmHg 75%
    03:00 +5°C° 0 mm 1 mps 651 mmHg 74%
    04:00 +5°C° 0 mm 1 mps 651 mmHg 73%
    05:00 +5°C° 0 mm 1 mps 651 mmHg 73%
    06:00 +5°C° 0 mm 1 mps 651 mmHg 72%
    07:00 +5°C° 0 mm 1 mps 651 mmHg 72%
    08:00 +7°C° 0 mm 1 mps 652 mmHg 73%
    09:00 +9°C° 0 mm 1 mps 652 mmHg 73%
    10:00 +11°C° 0 mm 1 mps 653 mmHg 74%
    11:00 +12°C° 0 mm 1 mps 653 mmHg 71%
    12:00 +12°C° 0 mm 0 mps 653 mmHg 69%
    13:00 +13°C° 0 mm 0 mps 653 mmHg 67%
    14:00 +13°C° 0 mm 0 mps 653 mmHg 71%
    15:00 +12°C° 0 mm 0 mps 653 mmHg 75%
    16:00 +11°C° 0 mm 0 mps 653 mmHg 79%
    17:00 +11°C° 0 mm 1 mps 652 mmHg 80%
    18:00 +9°C° 0 mm 1 mps 652 mmHg 81%
    19:00 +7°C° 0 mm 1 mps 652 mmHg 82%
    20:00 +7°C° 0 mm 1 mps 652 mmHg 80%
    21:00 +7°C° 0 mm 1 mps 652 mmHg 79%
    22:00 +7°C° 0 mm 1 mps 652 mmHg 78%
    23:00 +6°C° 0 mm 1 mps 652 mmHg 77%
    Show more